contact:dominique.lefevre@mio.osupytheas.fr, maurice.libes@osupytheas.fr, didier.mallarino@osupytheas.fr
Project:EMSO http://www.emso-fr.org/EMSO-France
Depth: 2436.0 m
Title:EMSO Ligure Ouest : Data MII capteur MICROCAT
DateTime_Computer,Latitude,Longitude,Temperature,Conductivity,Pressure,DateTime_Instrument
DateTime_Computer,Latitude,Longitude,degC,S m-1,dbar,DateTime_Instrument
2021-06-21T00:00:58Z,42.805,6.029,13.2990,4.59995,2470.413,2021-6-21T02:02:12Z
2021-06-21T00:04:02Z,42.805,6.029,13.2987,4.59995,2470.413,2021-6-21T02:05:16Z
2021-06-21T00:07:05Z,42.805,6.029,13.2989,4.59996,2470.413,2021-6-21T02:08:19Z
2021-06-21T00:10:08Z,42.805,6.029,13.2987,4.59995,2470.39,2021-6-21T02:11:22Z
2021-06-21T00:13:11Z,42.805,6.029,13.2986,4.59996,2470.404,2021-6-21T02:14:25Z
2021-06-21T00:16:14Z,42.805,6.029,13.2986,4.59995,2470.404,2021-6-21T02:17:28Z
2021-06-21T00:19:17Z,42.805,6.029,13.2990,4.59994,2470.437,2021-6-21T02:20:31Z
2021-06-21T00:22:20Z,42.805,6.029,13.2986,4.59994,2470.427,2021-6-21T02:23:34Z
2021-06-21T00:25:23Z,42.805,6.029,13.2990,4.59995,2470.437,2021-6-21T02:26:37Z
2021-06-21T00:28:26Z,42.805,6.029,13.2988,4.59995,2470.45,2021-6-21T02:29:40Z
2021-06-21T00:31:30Z,42.805,6.029,13.2989,4.59996,2470.39,2021-6-21T02:32:44Z
2021-06-21T00:34:33Z,42.805,6.029,13.2986,4.59994,2470.413,2021-6-21T02:35:47Z
2021-06-21T00:37:36Z,42.805,6.029,13.2986,4.59995,2470.437,2021-6-21T02:38:50Z
2021-06-21T00:40:39Z,42.805,6.029,13.2983,4.59994,2470.413,2021-6-21T02:41:53Z
2021-06-21T00:43:42Z,42.805,6.029,13.2991,4.59994,2470.46,2021-6-21T02:44:56Z
2021-06-21T00:46:45Z,42.805,6.029,13.2984,4.59995,2470.45,2021-6-21T02:47:59Z
2021-06-21T00:49:48Z,42.805,6.029,13.2989,4.59995,2470.413,2021-6-21T02:51:02Z
2021-06-21T00:52:51Z,42.805,6.029,13.2989,4.59995,2470.437,2021-6-21T02:54:05Z
2021-06-21T00:55:55Z,42.805,6.029,13.2986,4.59994,2470.437,2021-6-21T02:57:09Z
2021-06-21T00:58:58Z,42.805,6.029,13.2990,4.59996,2470.474,2021-6-21T03:00:12Z
2021-06-21T01:02:01Z,42.805,6.029,13.2990,4.59994,2470.437,2021-6-21T03:03:15Z
2021-06-21T01:05:04Z,42.805,6.029,13.2989,4.59994,2470.45,2021-6-21T03:06:18Z
2021-06-21T01:08:07Z,42.805,6.029,13.2987,4.59995,2470.46,2021-6-21T03:09:21Z
2021-06-21T01:11:10Z,42.805,6.029,13.2983,4.59994,2470.45,2021-6-21T03:12:24Z
2021-06-21T01:14:13Z,42.805,6.029,13.2990,4.59994,2470.437,2021-6-21T03:15:27Z
2021-06-21T01:17:16Z,42.805,6.029,13.2986,4.59997,2470.437,2021-6-21T03:18:30Z
2021-06-21T01:20:20Z,42.805,6.029,13.2988,4.59995,2470.46,2021-6-21T03:21:34Z
2021-06-21T01:23:23Z,42.805,6.029,13.2990,4.59994,2470.46,2021-6-21T03:24:37Z
2021-06-21T01:26:26Z,42.805,6.029,13.2986,4.59996,2470.437,2021-6-21T03:27:40Z
2021-06-21T01:29:29Z,42.805,6.029,13.2989,4.59996,2470.497,2021-6-21T03:30:43Z
2021-06-21T01:32:32Z,42.805,6.029,13.2986,4.59994,2470.497,2021-6-21T03:33:46Z
2021-06-21T01:35:35Z,42.805,6.029,13.2986,4.59994,2470.46,2021-6-21T03:36:49Z
2021-06-21T01:38:38Z,42.805,6.029,13.2986,4.59996,2470.46,2021-6-21T03:39:52Z
2021-06-21T01:41:41Z,42.805,6.029,13.2988,4.59995,2470.437,2021-6-21T03:42:55Z
2021-06-21T01:44:45Z,42.805,6.029,13.2989,4.59994,2470.46,2021-6-21T03:45:59Z
2021-06-21T01:47:48Z,42.805,6.029,13.2986,4.59994,2470.474,2021-6-21T03:49:02Z
2021-06-21T01:50:51Z,42.805,6.029,13.2986,4.59994,2470.46,2021-6-21T03:52:05Z
2021-06-21T01:53:54Z,42.805,6.029,13.2990,4.59995,2470.483,2021-6-21T03:55:08Z
2021-06-21T01:56:57Z,42.805,6.029,13.2990,4.59996,2470.46,2021-6-21T03:58:11Z
2021-06-21T02:00:00Z,42.805,6.029,13.2989,4.59995,2470.497,2021-6-21T04:01:14Z
2021-06-21T02:03:03Z,42.805,6.029,13.2990,4.59994,2470.483,2021-6-21T04:04:17Z
2021-06-21T02:06:06Z,42.805,6.029,13.2988,4.59994,2470.46,2021-6-21T04:07:20Z
2021-06-21T02:09:10Z,42.805,6.029,13.2986,4.59995,2470.483,2021-6-21T04:10:24Z
2021-06-21T02:12:13Z,42.805,6.029,13.2985,4.59995,2470.483,2021-6-21T04:13:27Z
2021-06-21T02:15:16Z,42.805,6.029,13.2987,4.59994,2470.483,2021-6-21T04:16:30Z
2021-06-21T02:18:19Z,42.805,6.029,13.2986,4.59995,2470.483,2021-6-21T04:19:33Z
2021-06-21T02:21:22Z,42.805,6.029,13.2986,4.59995,2470.497,2021-6-21T04:22:36Z
2021-06-21T02:24:25Z,42.805,6.029,13.2988,4.59996,2470.46,2021-6-21T04:25:39Z
2021-06-21T02:27:28Z,42.805,6.029,13.2988,4.59996,2470.52,2021-6-21T04:28:42Z
2021-06-21T02:30:31Z,42.805,6.029,13.2990,4.59995,2470.474,2021-6-21T04:31:45Z
2021-06-21T02:33:35Z,42.805,6.029,13.2988,4.59996,2470.497,2021-6-21T04:34:49Z
2021-06-21T02:36:38Z,42.805,6.029,13.2987,4.59994,2470.497,2021-6-21T04:37:52Z
2021-06-21T02:39:41Z,42.805,6.029,13.2990,4.59994,2470.483,2021-6-21T04:40:55Z
2021-06-21T02:42:44Z,42.805,6.029,13.2987,4.59995,2470.483,2021-6-21T04:43:58Z
2021-06-21T02:45:47Z,42.805,6.029,13.2987,4.59996,2470.507,2021-6-21T04:47:01Z
2021-06-21T02:48:50Z,42.805,6.029,13.2988,4.59995,2470.483,2021-6-21T04:50:04Z
2021-06-21T02:51:53Z,42.805,6.029,13.2988,4.59994,2470.46,2021-6-21T04:53:07Z
2021-06-21T02:54:56Z,42.805,6.029,13.2990,4.59995,2470.46,2021-6-21T04:56:10Z
2021-06-21T02:58:00Z,42.805,6.029,13.2990,4.59996,2470.474,2021-6-21T04:59:14Z
2021-06-21T03:01:03Z,42.805,6.029,13.2988,4.59994,2470.474,2021-6-21T05:02:17Z
2021-06-21T03:04:06Z,42.805,6.029,13.2986,4.59995,2470.483,2021-6-21T05:05:20Z
2021-06-21T03:07:09Z,42.805,6.029,13.2990,4.59994,2470.497,2021-6-21T05:08:23Z
2021-06-21T03:10:12Z,42.805,6.029,13.2985,4.59994,2470.507,2021-6-21T05:11:26Z
2021-06-21T03:13:15Z,42.805,6.029,13.2985,4.59994,2470.52,2021-6-21T05:14:29Z
2021-06-21T03:16:18Z,42.805,6.029,13.2987,4.59996,2470.507,2021-6-21T05:17:32Z
2021-06-21T03:19:21Z,42.805,6.029,13.2989,4.59995,2470.53,2021-6-21T05:20:35Z
2021-06-21T03:22:25Z,42.805,6.029,13.2990,4.59994,2470.497,2021-6-21T05:23:39Z
2021-06-21T03:25:28Z,42.805,6.029,13.2991,4.59996,2470.52,2021-6-21T05:26:42Z
2021-06-21T03:28:31Z,42.805,6.029,13.2988,4.59995,2470.52,2021-6-21T05:29:45Z
2021-06-21T03:31:34Z,42.805,6.029,13.2985,4.59995,2470.53,2021-6-21T05:32:48Z
2021-06-21T03:34:37Z,42.805,6.029,13.2987,4.59994,2470.52,2021-6-21T05:35:51Z
2021-06-21T03:37:40Z,42.805,6.029,13.2987,4.59994,2470.497,2021-6-21T05:38:54Z
2021-06-21T03:40:43Z,42.805,6.029,13.2988,4.59995,2470.483,2021-6-21T05:41:57Z
2021-06-21T03:43:46Z,42.805,6.029,13.2989,4.59996,2470.497,2021-6-21T05:45:00Z
2021-06-21T03:46:50Z,42.805,6.029,13.2986,4.59995,2470.507,2021-6-21T05:48:04Z
2021-06-21T03:49:53Z,42.805,6.029,13.2986,4.59995,2470.507,2021-6-21T05:51:07Z
2021-06-21T03:52:56Z,42.805,6.029,13.2987,4.59995,2470.474,2021-6-21T05:54:10Z
2021-06-21T03:55:59Z,42.805,6.029,13.2991,4.59996,2470.46,2021-6-21T05:57:13Z
2021-06-21T03:59:02Z,42.805,6.029,13.2988,4.59996,2470.53,2021-6-21T06:00:16Z
2021-06-21T04:02:05Z,42.805,6.029,13.2989,4.59995,2470.53,2021-6-21T06:03:19Z
2021-06-21T04:05:08Z,42.805,6.029,13.2989,4.59995,2470.483,2021-6-21T06:06:22Z
2021-06-21T04:08:11Z,42.805,6.029,13.2986,4.59996,2470.497,2021-6-21T06:09:25Z
2021-06-21T04:11:14Z,42.805,6.029,13.2989,4.59994,2470.507,2021-6-21T06:12:28Z
2021-06-21T04:17:21Z,42.805,6.029,13.2986,4.59994,2470.52,2021-6-21T06:18:35Z
2021-06-21T04:20:24Z,42.805,6.029,13.2986,4.59994,2470.507,2021-6-21T06:21:38Z
2021-06-21T04:23:27Z,42.805,6.029,13.2985,4.59994,2470.483,2021-6-21T06:24:41Z
2021-06-21T04:26:30Z,42.805,6.029,13.2984,4.59994,2470.507,2021-6-21T06:27:44Z
2021-06-21T04:29:33Z,42.805,6.029,13.2986,4.59996,2470.483,2021-6-21T06:30:47Z
2021-06-21T04:32:36Z,42.805,6.029,13.2986,4.59994,2470.474,2021-6-21T06:33:50Z
2021-06-21T04:35:39Z,42.805,6.029,13.2986,4.59994,2470.483,2021-6-21T06:36:53Z
2021-06-21T04:38:42Z,42.805,6.029,13.2986,4.59994,2470.497,2021-6-21T06:39:56Z
2021-06-21T04:41:46Z,42.805,6.029,13.2988,4.59996,2470.497,2021-6-21T06:43:00Z
2021-06-21T04:44:49Z,42.805,6.029,13.2987,4.59996,2470.483,2021-6-21T06:46:03Z
2021-06-21T04:47:52Z,42.805,6.029,13.2986,4.59994,2470.507,2021-6-21T06:49:06Z
2021-06-21T04:50:55Z,42.805,6.029,13.2990,4.59995,2470.483,2021-6-21T06:52:09Z
2021-06-21T04:53:58Z,42.805,6.029,13.2987,4.59995,2470.483,2021-6-21T06:55:12Z
2021-06-21T04:57:01Z,42.805,6.029,13.2987,4.59995,2470.483,2021-6-21T06:58:15Z
2021-06-21T05:00:04Z,42.805,6.029,13.2986,4.59995,2470.497,2021-6-21T07:01:18Z
2021-06-21T05:03:07Z,42.805,6.029,13.2988,4.59994,2470.483,2021-6-21T07:04:21Z
2021-06-21T05:06:10Z,42.805,6.029,13.2984,4.59993,2470.483,2021-6-21T07:07:24Z
2021-06-21T05:09:14Z,42.805,6.029,13.2984,4.59994,2470.483,2021-6-21T07:10:28Z
2021-06-21T05:12:17Z,42.805,6.029,13.2991,4.59996,2470.497,2021-6-21T07:13:31Z
2021-06-21T05:15:20Z,42.805,6.029,13.2988,4.59995,2470.483,2021-6-21T07:16:34Z
2021-06-21T05:18:23Z,42.805,6.029,13.2990,4.59994,2470.46,2021-6-21T07:19:37Z
2021-06-21T05:21:26Z,42.805,6.029,13.2986,4.59994,2470.497,2021-6-21T07:22:40Z
2021-06-21T05:24:29Z,42.805,6.029,13.2987,4.59995,2470.497,2021-6-21T07:25:43Z
2021-06-21T05:27:32Z,42.805,6.029,13.2988,4.59995,2470.497,2021-6-21T07:28:46Z
2021-06-21T05:30:35Z,42.805,6.029,13.2987,4.59994,2470.483,2021-6-21T07:31:49Z
2021-06-21T05:33:39Z,42.805,6.029,13.2986,4.59994,2470.483,2021-6-21T07:34:53Z
2021-06-21T05:36:42Z,42.805,6.029,13.2986,4.59996,2470.483,2021-6-21T07:37:56Z
2021-06-21T05:39:45Z,42.805,6.029,13.2989,4.59995,2470.46,2021-6-21T07:40:59Z
2021-06-21T05:42:48Z,42.805,6.029,13.2989,4.59994,2470.437,2021-6-21T07:44:02Z
2021-06-21T05:45:51Z,42.805,6.029,13.2986,4.59994,2470.474,2021-6-21T07:47:05Z
2021-06-21T05:48:54Z,42.805,6.029,13.2989,4.59994,2470.497,2021-6-21T07:50:08Z
2021-06-21T05:51:57Z,42.805,6.029,13.2986,4.59995,2470.46,2021-6-21T07:53:11Z
2021-06-21T05:55:00Z,42.805,6.029,13.2990,4.59994,2470.46,2021-6-21T07:56:14Z
2021-06-21T05:58:04Z,42.805,6.029,13.2984,4.59994,2470.52,2021-6-21T07:59:18Z
2021-06-21T06:01:07Z,42.805,6.029,13.2992,4.59995,2470.474,2021-6-21T08:02:21Z
2021-06-21T06:04:10Z,42.805,6.029,13.2986,4.59994,2470.483,2021-6-21T08:05:24Z
2021-06-21T06:07:13Z,42.805,6.029,13.2984,4.59994,2470.474,2021-6-21T08:08:27Z
2021-06-21T06:10:16Z,42.805,6.029,13.2987,4.59996,2470.474,2021-6-21T08:11:30Z
2021-06-21T06:13:19Z,42.805,6.029,13.2987,4.59995,2470.46,2021-6-21T08:14:33Z
2021-06-21T06:16:22Z,42.805,6.029,13.2989,4.59996,2470.437,2021-6-21T08:17:36Z
2021-06-21T06:19:25Z,42.805,6.029,13.2987,4.59994,2470.45,2021-6-21T08:20:39Z
2021-06-21T06:22:29Z,42.805,6.029,13.2987,4.59995,2470.437,2021-6-21T08:23:43Z
2021-06-21T06:25:32Z,42.805,6.029,13.2989,4.59996,2470.46,2021-6-21T08:26:46Z
2021-06-21T06:28:35Z,42.805,6.029,13.2989,4.59994,2470.437,2021-6-21T08:29:49Z
2021-06-21T06:31:38Z,42.805,6.029,13.2990,4.59995,2470.437,2021-6-21T08:32:52Z
2021-06-21T06:34:41Z,42.805,6.029,13.2986,4.59994,2470.437,2021-6-21T08:35:55Z
2021-06-21T06:37:44Z,42.805,6.029,13.2986,4.59994,2470.437,2021-6-21T08:38:58Z
2021-06-21T06:40:47Z,42.805,6.029,13.2985,4.59994,2470.45,2021-6-21T08:42:01Z
2021-06-21T06:43:50Z,42.805,6.029,13.2987,4.59994,2470.427,2021-6-21T08:45:04Z
2021-06-21T06:46:54Z,42.805,6.029,13.2988,4.59994,2470.39,2021-6-21T08:48:08Z
2021-06-21T06:49:57Z,42.805,6.029,13.2986,4.59993,2470.437,2021-6-21T08:51:11Z
2021-06-21T06:53:00Z,42.805,6.029,13.2990,4.59993,2470.437,2021-6-21T08:54:14Z
2021-06-21T06:56:03Z,42.805,6.029,13.2989,4.59994,2470.45,2021-6-21T08:57:17Z
2021-06-21T06:59:06Z,42.805,6.029,13.2990,4.59994,2470.413,2021-6-21T09:00:20Z
2021-06-21T07:02:09Z,42.805,6.029,13.2985,4.59994,2470.45,2021-6-21T09:03:23Z
2021-06-21T07:05:13Z,42.805,6.029,13.2989,4.59995,2470.413,2021-6-21T09:06:27Z
2021-06-21T07:08:16Z,42.805,6.029,13.2986,4.59993,2470.404,2021-6-21T09:09:30Z
2021-06-21T07:11:19Z,42.805,6.029,13.2983,4.59994,2470.413,2021-6-21T09:12:33Z
2021-06-21T07:14:22Z,42.805,6.029,13.2986,4.59993,2470.413,2021-6-21T09:15:36Z
2021-06-21T07:17:26Z,42.805,6.029,13.2984,4.59994,2470.427,2021-6-21T09:18:40Z
2021-06-21T07:20:29Z,42.805,6.029,13.2987,4.59994,2470.427,2021-6-21T09:21:43Z
2021-06-21T07:23:32Z,42.805,6.029,13.2988,4.59995,2470.413,2021-6-21T09:24:46Z
2021-06-21T07:26:35Z,42.805,6.029,13.2987,4.59994,2470.413,2021-6-21T09:27:49Z
2021-06-21T07:29:38Z,42.805,6.029,13.2986,4.59994,2470.376,2021-6-21T09:30:52Z
2021-06-21T07:32:41Z,42.805,6.029,13.2989,4.59994,2470.413,2021-6-21T09:33:55Z
2021-06-21T07:35:44Z,42.805,6.029,13.2986,4.59993,2470.404,2021-6-21T09:36:58Z
2021-06-21T07:38:47Z,42.805,6.029,13.2985,4.59994,2470.343,2021-6-21T09:40:01Z
2021-06-21T07:41:51Z,42.805,6.029,13.2988,4.59994,2470.404,2021-6-21T09:43:05Z
2021-06-21T07:44:54Z,42.805,6.029,13.2988,4.59994,2470.366,2021-6-21T09:46:08Z
2021-06-21T07:47:57Z,42.805,6.029,13.2987,4.59993,2470.366,2021-6-21T09:49:11Z
2021-06-21T07:51:00Z,42.805,6.029,13.2990,4.59993,2470.413,2021-6-21T09:52:14Z
2021-06-21T07:54:03Z,42.805,6.029,13.2984,4.59994,2470.39,2021-6-21T09:55:17Z
2021-06-21T07:57:06Z,42.805,6.029,13.2988,4.59993,2470.343,2021-6-21T09:58:20Z
2021-06-21T08:00:09Z,42.805,6.029,13.2987,4.59993,2470.404,2021-6-21T10:01:23Z
2021-06-21T08:03:12Z,42.805,6.029,13.2986,4.59994,2470.366,2021-6-21T10:04:26Z
2021-06-21T08:06:16Z,42.805,6.029,13.2988,4.59993,2470.366,2021-6-21T10:07:30Z
2021-06-21T08:09:19Z,42.805,6.029,13.2987,4.59993,2470.343,2021-6-21T10:10:33Z
2021-06-21T08:12:22Z,42.805,6.029,13.2990,4.59994,2470.343,2021-6-21T10:13:36Z
2021-06-21T08:15:25Z,42.805,6.029,13.2983,4.59995,2470.343,2021-6-21T10:16:39Z
2021-06-21T08:18:28Z,42.805,6.029,13.2984,4.59994,2470.343,2021-6-21T10:19:42Z
2021-06-21T08:21:31Z,42.805,6.029,13.2990,4.59993,2470.366,2021-6-21T10:22:45Z
2021-06-21T08:24:34Z,42.805,6.029,13.2989,4.59994,2470.343,2021-6-21T10:25:48Z
2021-06-21T08:27:37Z,42.805,6.029,13.2986,4.59993,2470.357,2021-6-21T10:28:51Z
2021-06-21T08:30:41Z,42.805,6.029,13.2990,4.59994,2470.343,2021-6-21T10:31:55Z
2021-06-21T08:33:44Z,42.805,6.029,13.2982,4.59994,2470.33,2021-6-21T10:34:58Z
2021-06-21T08:36:47Z,42.805,6.029,13.2985,4.59995,2470.32,2021-6-21T10:38:01Z
2021-06-21T08:39:50Z,42.805,6.029,13.2986,4.59993,2470.343,2021-6-21T10:41:04Z
2021-06-21T08:42:53Z,42.805,6.029,13.2991,4.59993,2470.32,2021-6-21T10:44:07Z
2021-06-21T08:45:56Z,42.805,6.029,13.2988,4.59994,2470.343,2021-6-21T10:47:10Z
2021-06-21T08:48:59Z,42.805,6.029,13.2986,4.59992,2470.38,2021-6-21T10:50:13Z
2021-06-21T08:52:02Z,42.805,6.029,13.2987,4.59994,2470.357,2021-6-21T10:53:16Z
2021-06-21T08:55:06Z,42.805,6.029,13.2990,4.59994,2470.334,2021-6-21T10:56:20Z
2021-06-21T08:58:09Z,42.805,6.029,13.2989,4.59994,2470.357,2021-6-21T10:59:23Z
2021-06-21T09:01:12Z,42.805,6.029,13.2986,4.59994,2470.32,2021-6-21T11:02:26Z
2021-06-21T09:04:15Z,42.805,6.029,13.2987,4.59994,2470.32,2021-6-21T11:05:29Z
2021-06-21T09:07:18Z,42.805,6.029,13.2986,4.59994,2470.32,2021-6-21T11:08:32Z
2021-06-21T09:10:21Z,42.805,6.029,13.2986,4.59994,2470.31,2021-6-21T11:11:35Z
2021-06-21T09:13:24Z,42.805,6.029,13.2988,4.59993,2470.334,2021-6-21T11:14:38Z
2021-06-21T09:16:27Z,42.805,6.029,13.2987,4.59994,2470.297,2021-6-21T11:17:41Z
2021-06-21T09:19:31Z,42.805,6.029,13.2990,4.59994,2470.306,2021-6-21T11:20:45Z
2021-06-21T09:22:34Z,42.805,6.029,13.2990,4.59994,2470.297,2021-6-21T11:23:48Z
2021-06-21T09:25:37Z,42.805,6.029,13.2992,4.59994,2470.334,2021-6-21T11:26:51Z
2021-06-21T09:28:40Z,42.805,6.029,13.2988,4.59993,2470.297,2021-6-21T11:29:54Z
2021-06-21T09:31:43Z,42.805,6.029,13.2986,4.59995,2470.32,2021-6-21T11:32:57Z
2021-06-21T09:34:46Z,42.805,6.029,13.2990,4.59994,2470.297,2021-6-21T11:36:00Z
2021-06-21T09:37:49Z,42.805,6.029,13.2990,4.59994,2470.31,2021-6-21T11:39:03Z
2021-06-21T09:40:52Z,42.805,6.029,13.2989,4.59995,2470.287,2021-6-21T11:42:06Z
2021-06-21T09:43:56Z,42.805,6.029,13.2988,4.59994,2470.297,2021-6-21T11:45:10Z
2021-06-21T09:46:59Z,42.805,6.029,13.2987,4.59994,2470.297,2021-6-21T11:48:13Z
2021-06-21T09:50:02Z,42.805,6.029,13.2988,4.59994,2470.31,2021-6-21T11:51:16Z
2021-06-21T09:53:05Z,42.805,6.029,13.2987,4.59993,2470.32,2021-6-21T11:54:19Z
2021-06-21T09:56:08Z,42.805,6.029,13.2987,4.59993,2470.334,2021-6-21T11:57:22Z
2021-06-21T09:59:11Z,42.805,6.029,13.2987,4.59995,2470.334,2021-6-21T12:00:25Z
2021-06-21T10:02:14Z,42.805,6.029,13.2984,4.59994,2470.297,2021-6-21T12:03:28Z
2021-06-21T10:05:17Z,42.805,6.029,13.2988,4.59994,2470.297,2021-6-21T12:06:31Z
2021-06-21T10:08:21Z,42.805,6.029,13.2990,4.59993,2470.25,2021-6-21T12:09:35Z
2021-06-21T10:11:24Z,42.805,6.029,13.2986,4.59993,2470.297,2021-6-21T12:12:38Z
2021-06-21T10:14:27Z,42.805,6.029,13.2988,4.59993,2470.297,2021-6-21T12:15:41Z
2021-06-21T10:17:30Z,42.805,6.029,13.2993,4.59994,2470.297,2021-6-21T12:18:44Z
2021-06-21T10:20:33Z,42.805,6.029,13.2988,4.59994,2470.334,2021-6-21T12:21:47Z
2021-06-21T10:23:36Z,42.805,6.029,13.2986,4.59994,2470.297,2021-6-21T12:24:50Z
2021-06-21T10:26:39Z,42.805,6.029,13.2985,4.59992,2470.273,2021-6-21T12:27:53Z
2021-06-21T10:29:42Z,42.805,6.029,13.2989,4.59995,2470.297,2021-6-21T12:30:56Z
2021-06-21T10:32:46Z,42.805,6.029,13.2989,4.59994,2470.31,2021-6-21T12:34:00Z
2021-06-21T10:35:49Z,42.805,6.029,13.2988,4.59994,2470.297,2021-6-21T12:37:03Z
2021-06-21T10:38:52Z,42.805,6.029,13.2989,4.59994,2470.334,2021-6-21T12:40:06Z
2021-06-21T10:41:55Z,42.805,6.029,13.2983,4.59994,2470.287,2021-6-21T12:43:09Z
2021-06-21T10:44:58Z,42.805,6.029,13.2986,4.59994,2470.273,2021-6-21T12:46:12Z
2021-06-21T10:48:01Z,42.805,6.029,13.2986,4.59994,2470.32,2021-6-21T12:49:15Z
2021-06-21T10:51:04Z,42.805,6.029,13.2986,4.59996,2470.334,2021-6-21T12:52:18Z
2021-06-21T10:54:08Z,42.805,6.029,13.2987,4.59994,2470.297,2021-6-21T12:55:22Z
2021-06-21T10:57:11Z,42.805,6.029,13.2987,4.59994,2470.334,2021-6-21T12:58:25Z
2021-06-21T11:00:14Z,42.805,6.029,13.2986,4.59994,2470.297,2021-6-21T13:01:28Z
2021-06-21T11:03:17Z,42.805,6.029,13.2989,4.59994,2470.31,2021-6-21T13:04:31Z
2021-06-21T11:06:20Z,42.805,6.029,13.2989,4.59994,2470.31,2021-6-21T13:07:34Z
2021-06-21T11:09:23Z,42.805,6.029,13.2988,4.59995,2470.297,2021-6-21T13:10:37Z
2021-06-21T11:12:26Z,42.805,6.029,13.2987,4.59994,2470.297,2021-6-21T13:13:40Z
2021-06-21T11:15:29Z,42.805,6.029,13.2987,4.59994,2470.287,2021-6-21T13:16:43Z
2021-06-21T11:18:33Z,42.805,6.029,13.2991,4.59994,2470.273,2021-6-21T13:19:47Z
2021-06-21T11:21:36Z,42.805,6.029,13.2989,4.59995,2470.273,2021-6-21T13:22:50Z
2021-06-21T11:24:39Z,42.805,6.029,13.2990,4.59996,2470.287,2021-6-21T13:25:53Z
2021-06-21T11:27:42Z,42.805,6.029,13.2987,4.59995,2470.26,2021-6-21T13:28:56Z
2021-06-21T11:30:45Z,42.805,6.029,13.2988,4.59995,2470.287,2021-6-21T13:31:59Z
2021-06-21T11:33:48Z,42.805,6.029,13.2988,4.59996,2470.31,2021-6-21T13:35:02Z
2021-06-21T11:36:51Z,42.805,6.029,13.2988,4.59995,2470.31,2021-6-21T13:38:05Z
2021-06-21T11:39:54Z,42.805,6.029,13.2991,4.59994,2470.297,2021-6-21T13:41:08Z
2021-06-21T11:42:58Z,42.805,6.029,13.2987,4.59994,2470.25,2021-6-21T13:44:12Z
2021-06-21T11:46:01Z,42.805,6.029,13.2985,4.59996,2470.287,2021-6-21T13:47:15Z
2021-06-21T11:49:04Z,42.805,6.029,13.2991,4.59996,2470.31,2021-6-21T13:50:18Z
2021-06-21T11:52:07Z,42.805,6.029,13.2988,4.59994,2470.297,2021-6-21T13:53:21Z
2021-06-21T11:55:10Z,42.805,6.029,13.2987,4.59994,2470.32,2021-6-21T13:56:24Z
2021-06-21T11:58:13Z,42.805,6.029,13.2990,4.59994,2470.334,2021-6-21T13:59:27Z
2021-06-21T12:01:16Z,42.805,6.029,13.2989,4.59994,2470.334,2021-6-21T14:02:30Z
2021-06-21T12:04:19Z,42.805,6.029,13.2986,4.59995,2470.273,2021-6-21T14:05:33Z
2021-06-21T12:07:23Z,42.805,6.029,13.2986,4.59996,2470.287,2021-6-21T14:08:37Z
2021-06-21T12:10:26Z,42.805,6.029,13.2986,4.59996,2470.334,2021-6-21T14:11:40Z
2021-06-21T12:13:29Z,42.805,6.029,13.2987,4.59996,2470.32,2021-6-21T14:14:43Z
2021-06-21T12:16:32Z,42.805,6.029,13.2985,4.59994,2470.334,2021-6-21T14:17:46Z
2021-06-21T12:19:35Z,42.805,6.029,13.2991,4.59994,2470.32,2021-6-21T14:20:49Z
2021-06-21T12:22:38Z,42.805,6.029,13.2985,4.59994,2470.31,2021-6-21T14:23:52Z
2021-06-21T12:25:41Z,42.805,6.029,13.2987,4.59994,2470.343,2021-6-21T14:26:55Z
2021-06-21T12:28:44Z,42.805,6.029,13.2988,4.59994,2470.343,2021-6-21T14:29:58Z
2021-06-21T12:31:48Z,42.805,6.029,13.2988,4.59995,2470.32,2021-6-21T14:33:02Z
2021-06-21T12:34:51Z,42.805,6.029,13.2988,4.59996,2470.32,2021-6-21T14:36:05Z
2021-06-21T12:37:54Z,42.805,6.029,13.2988,4.59994,2470.334,2021-6-21T14:39:08Z
2021-06-21T12:40:57Z,42.805,6.029,13.2983,4.59994,2470.32,2021-6-21T14:42:11Z
2021-06-21T12:44:00Z,42.805,6.029,13.2986,4.59995,2470.343,2021-6-21T14:45:14Z
2021-06-21T12:47:03Z,42.805,6.029,13.2986,4.59996,2470.38,2021-6-21T14:48:17Z
2021-06-21T12:50:06Z,42.805,6.029,13.2987,4.59995,2470.366,2021-6-21T14:51:20Z
2021-06-21T12:53:09Z,42.805,6.029,13.2988,4.59996,2470.343,2021-6-21T14:54:23Z
2021-06-21T12:56:13Z,42.805,6.029,13.2987,4.59996,2470.357,2021-6-21T14:57:27Z
2021-06-21T12:59:16Z,42.805,6.029,13.2990,4.59994,2470.343,2021-6-21T15:00:30Z
2021-06-21T13:02:19Z,42.805,6.029,13.2989,4.59996,2470.334,2021-6-21T15:03:33Z
2021-06-21T13:05:22Z,42.805,6.029,13.2986,4.59995,2470.343,2021-6-21T15:06:36Z
2021-06-21T13:08:25Z,42.805,6.029,13.2991,4.59996,2470.357,2021-6-21T15:09:39Z
2021-06-21T13:11:28Z,42.805,6.029,13.2990,4.59995,2470.366,2021-6-21T15:12:42Z
2021-06-21T13:14:31Z,42.805,6.029,13.2990,4.59995,2470.343,2021-6-21T15:15:45Z
2021-06-21T13:17:35Z,42.805,6.029,13.2986,4.59995,2470.366,2021-6-21T15:18:49Z
2021-06-21T13:20:38Z,42.805,6.029,13.2983,4.59994,2470.366,2021-6-21T15:21:52Z
2021-06-21T13:23:41Z,42.805,6.029,13.2990,4.59995,2470.404,2021-6-21T15:24:55Z
2021-06-21T13:26:44Z,42.805,6.029,13.2993,4.59995,2470.366,2021-6-21T15:27:58Z
2021-06-21T13:29:47Z,42.805,6.029,13.2989,4.59995,2470.357,2021-6-21T15:31:01Z
2021-06-21T13:32:50Z,42.805,6.029,13.2987,4.59995,2470.366,2021-6-21T15:34:04Z
2021-06-21T13:35:53Z,42.805,6.029,13.2991,4.59994,2470.39,2021-6-21T15:37:07Z
2021-06-21T13:38:56Z,42.805,6.029,13.2984,4.59996,2470.427,2021-6-21T15:40:10Z
2021-06-21T13:41:59Z,42.805,6.029,13.2987,4.59996,2470.39,2021-6-21T15:43:14Z
2021-06-21T13:45:03Z,42.805,6.029,13.2987,4.59996,2470.413,2021-6-21T15:46:17Z
2021-06-21T13:48:06Z,42.805,6.029,13.2992,4.59995,2470.366,2021-6-21T15:49:20Z
2021-06-21T13:51:09Z,42.805,6.029,13.2989,4.59996,2470.39,2021-6-21T15:52:23Z
2021-06-21T13:54:12Z,42.805,6.029,13.2989,4.59996,2470.39,2021-6-21T15:55:26Z
2021-06-21T13:57:15Z,42.805,6.029,13.2986,4.59995,2470.404,2021-6-21T15:58:29Z
2021-06-21T14:00:18Z,42.805,6.029,13.2989,4.59996,2470.39,2021-6-21T16:01:32Z
2021-06-21T14:03:21Z,42.805,6.029,13.2991,4.59995,2470.39,2021-6-21T16:04:35Z
2021-06-21T14:06:25Z,42.805,6.029,13.2990,4.59996,2470.39,2021-6-21T16:07:39Z
2021-06-21T14:09:28Z,42.805,6.029,13.2986,4.59996,2470.413,2021-6-21T16:10:42Z
2021-06-21T14:12:31Z,42.805,6.029,13.2990,4.59996,2470.413,2021-6-21T16:13:45Z
2021-06-21T14:15:34Z,42.805,6.029,13.2984,4.59995,2470.413,2021-6-21T16:16:48Z
2021-06-21T14:18:37Z,42.805,6.029,13.2991,4.59996,2470.366,2021-6-21T16:19:51Z
2021-06-21T14:21:40Z,42.805,6.029,13.2990,4.59996,2470.437,2021-6-21T16:22:54Z
2021-06-21T14:24:43Z,42.805,6.029,13.2989,4.59996,2470.427,2021-6-21T16:25:57Z
2021-06-21T14:27:46Z,42.805,6.029,13.2990,4.59996,2470.45,2021-6-21T16:29:00Z
2021-06-21T14:30:50Z,42.805,6.029,13.2984,4.59996,2470.45,2021-6-21T16:32:04Z
2021-06-21T14:33:53Z,42.805,6.029,13.2989,4.59996,2470.437,2021-6-21T16:35:07Z
2021-06-21T14:36:56Z,42.805,6.029,13.2987,4.59996,2470.413,2021-6-21T16:38:10Z
2021-06-21T14:39:59Z,42.805,6.029,13.2986,4.59996,2470.39,2021-6-21T16:41:13Z
2021-06-21T14:43:02Z,42.805,6.029,13.2990,4.59996,2470.437,2021-6-21T16:44:16Z
2021-06-21T14:46:05Z,42.805,6.029,13.2988,4.59996,2470.413,2021-6-21T16:47:19Z
2021-06-21T14:49:08Z,42.805,6.029,13.2989,4.59996,2470.437,2021-6-21T16:50:22Z
2021-06-21T14:52:11Z,42.805,6.029,13.2987,4.59997,2470.45,2021-6-21T16:53:25Z
2021-06-21T14:55:15Z,42.805,6.029,13.2984,4.59996,2470.413,2021-6-21T16:56:29Z
2021-06-21T14:58:18Z,42.805,6.029,13.2989,4.59995,2470.437,2021-6-21T16:59:32Z
2021-06-21T15:01:21Z,42.805,6.029,13.2986,4.59996,2470.474,2021-6-21T17:02:35Z
2021-06-21T15:04:24Z,42.805,6.029,13.2991,4.59996,2470.474,2021-6-21T17:05:38Z
2021-06-21T15:07:27Z,42.805,6.029,13.2990,4.59996,2470.46,2021-6-21T17:08:41Z
2021-06-21T15:10:30Z,42.805,6.029,13.2986,4.59996,2470.46,2021-6-21T17:11:44Z
2021-06-21T15:13:33Z,42.805,6.029,13.2990,4.59997,2470.46,2021-6-21T17:14:47Z
2021-06-21T15:16:36Z,42.805,6.029,13.2990,4.59996,2470.437,2021-6-21T17:17:51Z